EWG7KP EDDM-EDDF

Flight info

Callsign EWG7KP
Flight time 0h 38m
Altitude 24000
Route GIVMI1N GIVMI Y101 ERNAS T161 DEBHI DEBHI1B
Aircraft A320/M-SDE3FGHIRWY/LB1

Departure

Time 2026-05-05 19:20
Airport Munich Airport (EDDM)

Arrival

Time 2026-05-05 19:58
Airport Frankfurt Main Airport (EDDF)
Time Latitude Longitude Altitude Speed Heading
2026-05-05 18:46 48.35722 11.79698 1467 ft 0 kts 82°
2026-05-05 19:05 48.35721 11.79683 1458 ft 2 kts 82°
2026-05-05 19:05 48.35719 11.79658 1464 ft 2 kts 82°
2026-05-05 19:05 48.35716 11.79632 1458 ft 2 kts 82°
2026-05-05 19:05 48.35714 11.79607 1459 ft 2 kts 82°
2026-05-05 19:06 48.35712 11.79580 1458 ft 3 kts 68°
2026-05-05 19:06 48.35702 11.79558 1457 ft 3 kts 31°
2026-05-05 19:06 48.35686 11.79548 1456 ft 3 kts 355°
2026-05-05 19:06 48.35678 11.79549 1459 ft 0 kts 353°
2026-05-05 19:11 48.35731 11.79539 1459 ft 11 kts 353°
2026-05-05 19:11 48.35810 11.79524 1467 ft 11 kts 353°
2026-05-05 19:11 48.35885 11.79510 1467 ft 11 kts 353°
2026-05-05 19:12 48.35956 11.79496 1462 ft 10 kts 353°
2026-05-05 19:12 48.36018 11.79485 1466 ft 8 kts 353°
2026-05-05 19:12 48.36068 11.79477 1467 ft 6 kts 356°
2026-05-05 19:12 48.36103 11.79476 1468 ft 6 kts 359°
2026-05-05 19:13 48.36183 11.79473 1468 ft 9 kts
2026-05-05 19:13 48.36214 11.79528 1466 ft 7 kts 81°
2026-05-05 19:13 48.36219 11.79616 1466 ft 12 kts 79°
2026-05-05 19:13 48.36234 11.79745 1466 ft 12 kts 82°
2026-05-05 19:14 48.36243 11.79859 1468 ft 10 kts 83°
2026-05-05 19:14 48.36251 11.79958 1465 ft 9 kts 83°
2026-05-05 19:14 48.36258 11.80051 1468 ft 13 kts 83°
2026-05-05 19:14 48.36276 11.80270 1463 ft 25 kts 83°
2026-05-05 19:15 48.36298 11.80541 1467 ft 27 kts 83°
2026-05-05 19:15 48.36318 11.80824 1464 ft 28 kts 84°
2026-05-05 19:15 48.36337 11.81109 1457 ft 24 kts 84°
2026-05-05 19:15 48.36356 11.81366 1460 ft 25 kts 83°
2026-05-05 19:16 48.36375 11.81620 1460 ft 24 kts 83°
2026-05-05 19:16 48.36393 11.81857 1464 ft 19 kts 83°
2026-05-05 19:16 48.36405 11.81999 1466 ft 9 kts 64°
2026-05-05 19:16 48.36456 11.82012 1463 ft 7 kts 351°
2026-05-05 19:17 48.36473 11.82008 1464 ft 6 kts 351°
2026-05-05 19:17 48.36534 11.81996 1457 ft 7 kts 352°
2026-05-05 19:17 48.36544 11.81994 1460 ft 0 kts 352°
2026-05-05 19:18 48.36593 11.81983 1464 ft 14 kts 352°
2026-05-05 19:18 48.36676 11.81965 1463 ft 9 kts 347°
2026-05-05 19:19 48.36692 11.81897 1467 ft 8 kts 270°
2026-05-05 19:19 48.36680 11.81809 1460 ft 10 kts 256°
2026-05-05 19:19 48.36666 11.81699 1457 ft 12 kts 262°
2026-05-05 19:19 48.36643 11.81426 1462 ft 57 kts 263°
2026-05-05 19:20 48.36569 11.80498 1463 ft 118 kts 264°
2026-05-05 19:20 48.36469 11.79015 1469 ft 165 kts 262°
2026-05-05 19:20 48.36326 11.77256 1999 ft 169 kts 264°
2026-05-05 19:20 48.36205 11.75489 2761 ft 170 kts 265°
2026-05-05 19:21 48.36076 11.73783 3481 ft 161 kts 264°
2026-05-05 19:21 48.35940 11.72134 4115 ft 161 kts 264°
2026-05-05 19:21 48.35809 11.70367 4530 ft 179 kts 264°
2026-05-05 19:21 48.35838 11.68416 4931 ft 196 kts 279°
2026-05-05 19:22 48.36307 11.66353 5164 ft 224 kts 296°
2026-05-05 19:22 48.37195 11.64251 5507 ft 250 kts 301°
2026-05-05 19:22 48.38162 11.61989 6220 ft 261 kts 300°
2026-05-05 19:22 48.39136 11.59629 6676 ft 267 kts 299°
2026-05-05 19:23 48.40104 11.57242 6801 ft 267 kts 298°
2026-05-05 19:23 48.41067 11.54862 6839 ft 266 kts 298°
2026-05-05 19:23 48.42030 11.52473 6838 ft 266 kts 299°
2026-05-05 19:23 48.42991 11.50093 6840 ft 265 kts 298°
2026-05-05 19:24 48.43950 11.47717 6836 ft 265 kts 298°
2026-05-05 19:24 48.44916 11.45355 6837 ft 265 kts 302°
2026-05-05 19:24 48.46252 11.43435 6870 ft 270 kts 327°
2026-05-05 19:24 48.48037 11.42531 7102 ft 279 kts 345°
2026-05-05 19:25 48.49955 11.42000 7343 ft 282 kts 345°
2026-05-05 19:25 48.51888 11.41478 7589 ft 284 kts 346°
2026-05-05 19:25 48.53840 11.40953 7771 ft 286 kts 346°
2026-05-05 19:25 48.55801 11.40420 7815 ft 286 kts 346°
2026-05-05 19:26 48.57764 11.39884 7818 ft 286 kts 345°
2026-05-05 19:26 48.59722 11.39350 7818 ft 286 kts 345°
2026-05-05 19:26 48.61684 11.38813 7814 ft 286 kts 345°
2026-05-05 19:26 48.63642 11.38272 7818 ft 286 kts 345°
2026-05-05 19:27 48.65598 11.37729 7812 ft 286 kts 345°
2026-05-05 19:27 48.67566 11.37183 8228 ft 289 kts 345°
2026-05-05 19:27 48.69551 11.36597 9162 ft 290 kts 340°
2026-05-05 19:27 48.71347 11.35278 9942 ft 288 kts 322°
2026-05-05 19:28 48.73022 11.33585 10707 ft 291 kts 322°
2026-05-05 19:28 48.74710 11.31866 11456 ft 295 kts 322°
2026-05-05 19:28 48.76422 11.30120 12208 ft 299 kts 322°
2026-05-05 19:28 48.78159 11.28350 12947 ft 302 kts 322°
2026-05-05 19:29 48.79916 11.26555 13670 ft 307 kts 323°
2026-05-05 19:29 48.81698 11.24741 14312 ft 310 kts 323°
2026-05-05 19:29 48.83481 11.22929 14941 ft 314 kts 323°
2026-05-05 19:29 48.85216 11.20905 15573 ft 315 kts 315°
2026-05-05 19:30 48.86838 11.18654 16242 ft 317 kts 314°
2026-05-05 19:30 48.88470 11.16380 16921 ft 319 kts 314°
2026-05-05 19:30 48.90112 11.14091 17591 ft 322 kts 314°
2026-05-05 19:30 48.91785 11.11752 18080 ft 330 kts 315°
2026-05-05 19:31 48.93488 11.09368 18604 ft 335 kts 315°
2026-05-05 19:31 48.95211 11.06959 19152 ft 338 kts 315°
2026-05-05 19:31 48.96952 11.04533 19696 ft 341 kts 315°
2026-05-05 19:31 48.98712 11.02080 20248 ft 345 kts 315°
2026-05-05 19:32 49.00488 10.99595 20798 ft 348 kts 315°
2026-05-05 19:32 49.02278 10.97082 21340 ft 351 kts 315°
2026-05-05 19:32 49.04083 10.94543 21878 ft 354 kts 315°
2026-05-05 19:32 49.05901 10.91985 22411 ft 357 kts 315°
2026-05-05 19:33 49.07735 10.89404 22940 ft 361 kts 315°
2026-05-05 19:33 49.09589 10.86790 23459 ft 364 kts 315°
2026-05-05 19:33 49.11455 10.84156 23773 ft 368 kts 315°
2026-05-05 19:33 49.13307 10.81541 23855 ft 368 kts 315°
2026-05-05 19:34 49.15188 10.78884 23874 ft 368 kts 315°
2026-05-05 19:34 49.17064 10.76226 23872 ft 368 kts 314°
2026-05-05 19:34 49.18939 10.73560 23875 ft 368 kts 314°
2026-05-05 19:35 49.22603 10.68092 23877 ft 368 kts 311°
2026-05-05 19:35 49.24378 10.65275 23877 ft 368 kts 311°
2026-05-05 19:35 49.26144 10.62434 23876 ft 368 kts 311°
2026-05-05 19:35 49.27908 10.59593 23876 ft 368 kts 311°
2026-05-05 19:36 49.29668 10.56773 23641 ft 365 kts 311°
2026-05-05 19:36 49.31431 10.53966 23190 ft 363 kts 311°
2026-05-05 19:36 49.33181 10.51193 22734 ft 361 kts 312°
2026-05-05 19:36 49.34896 10.48479 22304 ft 358 kts 311°
2026-05-05 19:37 49.36571 10.45624 21890 ft 353 kts 307°
2026-05-05 19:37 49.38063 10.42651 21481 ft 350 kts 303°
2026-05-05 19:37 49.39447 10.39640 21090 ft 347 kts 302°
2026-05-05 19:37 49.40793 10.36587 20705 ft 344 kts 301°
2026-05-05 19:38 49.42125 10.33543 20318 ft 342 kts 301°
2026-05-05 19:38 49.43456 10.30526 19942 ft 340 kts 302°
2026-05-05 19:38 49.44789 10.27540 19574 ft 338 kts 302°
2026-05-05 19:38 49.46121 10.24585 19205 ft 335 kts 302°
2026-05-05 19:39 49.47449 10.21655 18854 ft 333 kts 302°
2026-05-05 19:39 49.48776 10.18735 18319 ft 336 kts 302°
2026-05-05 19:39 49.50143 10.15725 17535 ft 347 kts 302°
2026-05-05 19:39 49.51516 10.12702 17193 ft 342 kts 302°
2026-05-05 19:40 49.52869 10.09719 16808 ft 339 kts 302°
2026-05-05 19:40 49.54212 10.06756 16425 ft 336 kts 302°
2026-05-05 19:40 49.55541 10.03814 16047 ft 333 kts 302°
2026-05-05 19:40 49.56857 10.00892 15682 ft 331 kts 302°
2026-05-05 19:41 49.58145 9.98029 15324 ft 328 kts 302°
2026-05-05 19:41 49.59439 9.95148 14963 ft 326 kts 302°
2026-05-05 19:41 49.60723 9.92290 14624 ft 323 kts 302°
2026-05-05 19:41 49.62002 9.89445 14282 ft 321 kts 302°
2026-05-05 19:42 49.63264 9.86628 13933 ft 318 kts 302°
2026-05-05 19:42 49.64510 9.83845 13758 ft 311 kts 302°
2026-05-05 19:42 49.65719 9.81144 13621 ft 301 kts 302°
2026-05-05 19:42 49.66902 9.78499 13348 ft 297 kts 301°
2026-05-05 19:43 49.68070 9.75877 13006 ft 295 kts 301°
2026-05-05 19:43 49.69233 9.73267 12658 ft 294 kts 301°
2026-05-05 19:43 49.70389 9.70670 12302 ft 292 kts 301°
2026-05-05 19:43 49.71536 9.68085 11954 ft 291 kts 301°
2026-05-05 19:44 49.72676 9.65519 11598 ft 289 kts 301°
2026-05-05 19:44 49.73816 9.62964 11241 ft 288 kts 302°
2026-05-05 19:44 49.75162 9.60661 10904 ft 290 kts 313°
2026-05-05 19:44 49.76620 9.58568 10818 ft 290 kts 314°
2026-05-05 19:45 49.78133 9.56432 10826 ft 291 kts 314°
2026-05-05 19:45 49.79608 9.54350 10829 ft 291 kts 314°
2026-05-05 19:45 49.81101 9.52237 10828 ft 291 kts 314°
2026-05-05 19:45 49.82596 9.50123 10817 ft 290 kts 314°
2026-05-05 19:46 49.84084 9.48017 10432 ft 292 kts 314°
2026-05-05 19:46 49.85594 9.45881 9946 ft 295 kts 314°
2026-05-05 19:46 49.87121 9.43718 9445 ft 298 kts 314°
2026-05-05 19:46 49.88656 9.41539 8904 ft 300 kts 314°
2026-05-05 19:47 49.90197 9.39340 8389 ft 301 kts 314°
2026-05-05 19:47 49.91737 9.37130 7881 ft 302 kts 314°
2026-05-05 19:47 49.92753 9.35664 7648 ft 298 kts 314°
2026-05-05 19:47 49.94747 9.32786 7314 ft 287 kts 314°
2026-05-05 19:48 49.95706 9.31403 7149 ft 281 kts 314°
2026-05-05 19:48 49.97119 9.29361 6913 ft 275 kts 314°
2026-05-05 19:48 49.98508 9.27347 6802 ft 272 kts 314°
2026-05-05 19:48 49.99893 9.25336 6826 ft 273 kts 314°
2026-05-05 19:49 50.01278 9.23322 6826 ft 273 kts 314°
2026-05-05 19:49 50.02666 9.21303 6826 ft 273 kts 314°
2026-05-05 19:49 50.04051 9.19285 6816 ft 273 kts 314°
2026-05-05 19:49 50.05434 9.17269 6700 ft 271 kts 314°
2026-05-05 19:50 50.06809 9.15263 6297 ft 270 kts 314°
2026-05-05 19:50 50.08154 9.13294 6029 ft 268 kts 314°
2026-05-05 19:50 50.09511 9.11302 6010 ft 266 kts 314°
2026-05-05 19:50 50.10812 9.09398 6009 ft 248 kts 314°
2026-05-05 19:51 50.12031 9.07625 6010 ft 231 kts 314°
2026-05-05 19:51 50.13147 9.05961 6007 ft 213 kts 306°
2026-05-05 19:51 50.13854 9.04050 6010 ft 202 kts 288°
2026-05-05 19:51 50.14157 9.01944 6004 ft 197 kts 260°
2026-05-05 19:52 50.13752 8.99919 5874 ft 196 kts 249°
2026-05-05 19:52 50.13277 8.97933 5625 ft 193 kts 249°
2026-05-05 19:52 50.12820 8.95995 5359 ft 189 kts 249°
2026-05-05 19:52 50.12369 8.94071 5100 ft 188 kts 249°
2026-05-05 19:53 50.11921 8.92158 4865 ft 188 kts 249°
2026-05-05 19:53 50.11473 8.90250 4621 ft 187 kts 249°
2026-05-05 19:53 50.11027 8.88352 4364 ft 186 kts 249°
2026-05-05 19:53 50.10581 8.86454 4108 ft 186 kts 249°
2026-05-05 19:54 50.10137 8.84564 3857 ft 186 kts 250°
2026-05-05 19:54 50.09692 8.82676 3601 ft 185 kts 250°
2026-05-05 19:54 50.09248 8.80793 3361 ft 185 kts 250°
2026-05-05 19:54 50.08811 8.78937 3118 ft 185 kts 250°
2026-05-05 19:55 50.08368 8.77062 2869 ft 183 kts 250°
2026-05-05 19:55 50.07936 8.75232 2615 ft 176 kts 250°
2026-05-05 19:55 50.07527 8.73501 2389 ft 165 kts 250°
2026-05-05 19:55 50.07136 8.71851 2168 ft 161 kts 250°
2026-05-05 19:56 50.06753 8.70232 1981 ft 163 kts 249°
2026-05-05 19:56 50.06355 8.68552 1744 ft 160 kts 249°
2026-05-05 19:56 50.05988 8.67007 1534 ft 145 kts 249°
2026-05-05 19:56 50.05646 8.65566 1337 ft 140 kts 249°
2026-05-05 19:57 50.05311 8.64146 1139 ft 139 kts 249°
2026-05-05 19:57 50.04975 8.62731 954 ft 140 kts 249°
2026-05-05 19:57 50.04638 8.61310 774 ft 140 kts 249°
2026-05-05 19:57 50.04304 8.59883 588 ft 140 kts 249°
2026-05-05 19:58 50.03965 8.58465 404 ft 139 kts 248°
2026-05-05 19:58 50.03647 8.57172 359 ft 109 kts 248°
2026-05-05 19:58 50.03447 8.56315 363 ft 60 kts 249°
2026-05-05 19:58 50.03347 8.55881 362 ft 37 kts 249°
2026-05-05 19:59 50.03322 8.55488 357 ft 37 kts 274°
2026-05-05 19:59 50.03333 8.55204 349 ft 11 kts 291°
2026-05-05 19:59 50.03355 8.55175 349 ft 0 kts 324°
2026-05-05 20:00 50.03357 8.55173 349 ft 3 kts 324°
2026-05-05 20:00 50.03399 8.55159 346 ft 6 kts 14°
2026-05-05 20:00 50.03423 8.55196 358 ft 4 kts 60°
2026-05-05 20:01 50.03430 8.55229 348 ft 4 kts 74°
2026-05-05 20:01 50.03444 8.55289 351 ft 6 kts 68°
2026-05-05 20:01 50.03462 8.55358 345 ft 9 kts 67°
2026-05-05 20:01 50.03495 8.55483 353 ft 15 kts 68°
2026-05-05 20:02 50.03533 8.55643 354 ft 17 kts 70°
2026-05-05 20:02 50.03579 8.55837 361 ft 21 kts 70°
2026-05-05 20:02 50.03632 8.56066 360 ft 25 kts 70°
2026-05-05 20:02 50.03696 8.56344 363 ft 29 kts 69°
2026-05-05 20:03 50.03776 8.56663 360 ft 34 kts 69°
2026-05-05 20:03 50.03865 8.57028 360 ft 37 kts 70°
2026-05-05 20:03 50.03951 8.57393 366 ft 35 kts 68°
2026-05-05 20:03 50.04036 8.57757 366 ft 36 kts 71°
2026-05-05 20:04 50.04122 8.58096 369 ft 28 kts 58°
2026-05-05 20:04 50.04252 8.58205 367 ft 14 kts
2026-05-05 20:04 50.04263 8.58206 366 ft 0 kts
2026-05-05 20:06 50.04293 8.58201 366 ft 16 kts 348°
2026-05-05 20:07 50.04456 8.58109 371 ft 25 kts 339°
2026-05-05 20:07 50.04612 8.58012 373 ft 15 kts 338°
2026-05-05 20:07 50.04634 8.57999 373 ft 0 kts 338°
2026-05-05 20:07 50.04639 8.57995 373 ft 3 kts 338°
2026-05-05 20:08 50.04663 8.57983 373 ft 0 kts 342°
2026-05-05 20:10 50.04713 8.57958 372 ft 13 kts 342°
2026-05-05 20:11 50.04797 8.57911 371 ft 13 kts 338°
2026-05-05 20:11 50.04855 8.57815 370 ft 15 kts 295°
2026-05-05 20:11 50.04906 8.57637 369 ft 11 kts 294°
2026-05-05 20:11 50.04937 8.57528 368 ft 11 kts 294°
2026-05-05 20:12 50.04963 8.57444 368 ft 7 kts 307°
2026-05-05 20:12 50.05007 8.57438 364 ft 7 kts 18°